Location: Prague
(50.0830°N, 14.4670°E)
Time: 04:20:46
(UTC+01:00)

NOAA 15 - Visible Passes

Search period start: 29 November 2021 00:00
Search period end: 09 December 2021 00:00
Orbit: 797 x 812 km, 98.7° (Epoch: 28 November)

Date Brightness Start Highest point End Pass type
(mag) Time Alt. Az. Time Alt. Az. Time Alt. Az.
29 Nov 5.7 17:18:16 10° ESE 17:22:14 22° ENE 17:26:12 10° N visible
29 Nov 4.7 18:56:14 10° S 19:01:32 71° WSW 19:06:50 10° NNW visible
29 Nov 7.5 20:40:37 10° WSW 20:42:15 11° W 20:43:54 10° WNW visible
30 Nov 6.1 16:54:28 10° E 16:57:23 15° NE 17:00:16 10° NNE visible
30 Nov 4.4 18:31:02 10° SSE 18:36:19 75° ENE 18:41:36 10° NNW visible
30 Nov 7.0 20:13:01 10° SW 20:16:39 19° W 20:20:19 10° NW visible
01 Dec 7.3 06:42:09 10° NE 06:45:55 20° E 06:49:40 10° SE visible
01 Dec 4.7 18:06:08 10° SE 18:11:11 48° ENE 18:16:15 10° N visible
01 Dec 6.3 19:46:36 10° SSW 19:51:10 29° W 19:55:45 10° NW visible
02 Dec 7.7 06:18:21 10° ENE 06:20:20 12° E 06:22:18 10° ESE visible
02 Dec 5.3 17:41:31 10° ESE 17:46:09 32° ENE 17:50:47 10° N visible
02 Dec 5.5 19:20:43 10° S 19:25:46 46° W 19:30:52 10° NNW visible
03 Dec 5.7 17:17:17 10° ESE 17:21:12 22° ENE 17:25:08 10° N visible
03 Dec 4.7 18:55:11 10° S 19:00:28 73° WSW 19:05:47 10° NNW visible
03 Dec 7.5 20:39:25 10° WSW 20:41:11 12° W 20:42:58 10° WNW visible
04 Dec 6.7 07:05:43 10° NNE 07:10:20 30° E 07:14:54 10° SSE visible
04 Dec 6.1 16:53:31 10° E 16:56:21 15° NE 16:59:10 10° NNE visible
04 Dec 4.4 18:30:00 10° SSE 18:35:16 73° ENE 18:40:33 10° NNW visible
04 Dec 7.0 20:11:54 10° SW 20:15:36 19° W 20:19:18 10° NW visible
05 Dec 7.3 06:41:07 10° NE 06:44:51 19° E 06:48:33 10° SE visible
05 Dec 4.8 18:05:06 10° SE 18:10:08 47° ENE 18:15:11 10° N visible
05 Dec 6.3 19:45:31 10° SSW 19:50:06 30° W 19:54:43 10° NNW visible
06 Dec 7.7 06:17:24 10° ENE 06:19:15 12° E 06:21:06 10° ESE visible
06 Dec 5.3 17:40:31 10° ESE 17:45:06 31° ENE 17:49:42 10° N visible
06 Dec 5.5 19:19:38 10° S 19:24:43 47° W 19:29:49 10° NNW visible
07 Dec 5.7 17:16:17 10° ESE 17:20:09 21° ENE 17:24:02 10° N visible
07 Dec 4.7 18:54:08 10° S 18:59:25 74° WSW 19:04:43 10° NNW visible
07 Dec 7.5 20:38:14 10° WSW 20:40:06 12° W 20:42:01 10° WNW visible
08 Dec 6.8 07:04:41 10° NNE 07:09:16 30° E 07:13:48 10° SSE visible
08 Dec 6.1 16:52:33 10° E 16:55:18 14° NE 16:58:03 10° NNE visible
08 Dec 4.4 18:28:57 10° SSE 18:34:12 72° ENE 18:39:29 10° NNW visible
08 Dec 6.9 20:10:48 10° SW 20:14:31 19° W 20:18:16 10° NW visible
